FW8240 Weather Reports


time (UTC)temp
C
wind
direction
speed
KPH
gust
KPH
rain 1hr
cm
rain 24hr
cm
rain mn
cm
humidity
%
barometer
mb
20260502180548 27 234 1.6 6.4 0.00 0.00 0.00 71 1028.0
20260502164036 26 58 3.2 6.4 0.00 0.00 0.00 70 1029.4
20260502163534 25 333 3.2 8.0 0.00 0.00 0.00 70 1029.4
20260502163035 25 124 3.2 8.0 0.00 0.00 0.00 71 1029.5
20260502162532 25 29 1.6 6.4 0.00 0.00 0.00 69 1029.5
20260502162030 25 47 0.0 4.8 0.00 0.00 0.00 70 1029.5
20260502161529 24 110 0.0 4.8 0.00 0.00 0.00 73 1029.5
20260502161027 23 44 0.0 3.2 0.00 0.00 0.00 73 1029.4
20260502160529 23 51 0.0 4.8 0.00 0.00 0.00 77 1029.4
20260502152014 20 10 1.6 3.2 0.00 0.00 0.00 85 1029.7
20260502151513 20 15 1.6 3.2 0.00 0.00 0.00 85 1029.7
20260502151012 20 4 1.6 3.2 0.00 0.00 0.00 86 1029.8
20260502150510 20 7 1.6 3.2 0.00 0.00 0.00 86 1029.8
20260502140104 17 360 1.6 4.8 0.00 0.00 0.00 87 1029.5
20260502130555 17 4 0.0 1.6 0.00 0.00 0.00 89 1029.1
20260502123552 17 359 0.0 3.2 0.00 0.00 0.00 89 1028.9
20260502123053 17 358 0.0 3.2 0.00 0.00 0.00 90 1028.9
20260502122554 17 358 0.0 3.2 0.00 0.00 0.00 90 1028.8
20260502122052 17 354 0.0 1.6 0.00 0.00 0.00 90 1028.8
20260502121553 17 356 0.0 3.2 0.00 0.00 0.00 90 1028.7
20260502121052 17 354 0.0 3.2 0.00 0.00 0.00 90 1028.7
20260502120551 17 354 0.0 1.6 0.00 0.00 0.00 90 1028.6
20260502115553 17 326 0.0 3.2 0.00 0.00 0.00 90 1028.6
20260502115050 17 359 0.0 3.2 0.00 0.00 0.00 90 1028.6
20260502114550 17 359 0.0 3.2 0.00 0.00 0.00 90 1028.5
20260502114049 17 359 0.0 1.6 0.00 0.00 0.00 90 1028.5
20260502113550 17 359 0.0 1.6 0.00 0.00 0.00 90 1028.4
20260502113048 17 359 0.0 1.6 0.00 0.00 0.00 90 1028.4
20260502112551 17 358 0.0 1.6 0.00 0.00 0.00 90 1028.3
20260502112047 17 354 0.0 3.2 0.00 0.00 0.00 90 1028.2
20260502111600 17 354 0.0 3.2 0.00 0.00 0.00 90 1028.2
20260502111048 17 353 0.0 3.2 0.00 0.00 0.00 90 1028.2
20260502110547 17 352 0.0 3.2 0.00 0.00 0.00 90 1028.1
20260502110047 17 355 0.0 3.2 0.00 0.00 0.00 90 1028.1
20260502105548 17 355 0.0 3.2 0.00 0.00 0.00 90 1028.0
20260502105047 17 355 0.0 3.2 0.00 0.00 0.00 90 1027.9
20260502104547 17 355 0.0 3.2 0.00 0.00 0.00 90 1027.9
20260502104048 17 355 1.6 3.2 0.00 0.00 0.00 90 1027.8
20260502103545 17 359 0.0 3.2 0.00 0.00 0.00 90 1027.9
20260502103101 17 1 1.6 3.2 0.00 0.00 0.00 90 1027.9
20260502102544 17 1 0.0 3.2 0.00 0.00 0.00 90 1027.9
20260502102045 17 360 0.0 3.2 0.00 0.00 0.00 90 1027.9
20260502101546 17 1 0.0 3.2 0.00 0.00 0.00 90 1027.9
20260502101044 17 1 0.0 3.2 0.00 0.00 0.00 90 1027.9
20260502100643 17 1 1.6 3.2 0.00 0.00 0.00 90 1027.9
20260502091038 17 359 0.0 3.2 0.00 0.00 0.00 90 1027.7
20260502090542 17 1 0.0 4.8 0.00 0.00 0.00 90 1027.8
20260502071528 18 8 0.0 3.2 0.00 0.00 0.00 90 1028.4
20260502071021 18 1 0.0 3.2 0.00 0.00 0.00 90 1028.5
20260502070520 18 1 1.6 3.2 0.00 0.00 0.00 90 1028.6
20260502070024 18 1 1.6 3.2 0.00 0.00 0.00 90 1028.7
20260502065519 18 350 0.0 1.6 0.00 0.00 0.00 90 1028.6
20260502065024 18 350 0.0 3.2 0.00 0.00 0.00 90 1028.7
20260502064520 18 350 0.0 3.2 0.00 0.00 0.00 90 1028.8
20260502064018 18 349 0.0 3.2 0.00 0.00 0.00 90 1028.8
20260502063517 18 347 0.0 3.2 0.00 0.00 0.00 89 1028.9
20260502063026 18 347 0.0 3.2 0.00 0.00 0.00 89 1028.9
20260502062516 18 347 0.0 3.2 0.00 0.00 0.00 89 1029.0
20260502062015 18 347 0.0 1.6 0.00 0.00 0.00 89 1029.0
20260502061515 18 347 0.0 3.2 0.00 0.00 0.00 89 1029.1
20260502061014 18 347 0.0 3.2 0.00 0.00 0.00 89 1029.0
20260502060513 18 347 0.0 3.2 0.00 0.00 0.00 89 1029.1
20260502060019 18 347 0.0 3.2 0.00 0.00 0.00 89 1029.1
20260502055512 18 351 0.0 3.2 0.00 0.00 0.00 89 1029.0
20260502055012 18 351 0.0 3.2 0.00 0.00 0.00 89 1029.0
20260502054523 18 331 0.0 1.6 0.00 0.00 0.00 89 1029.0
20260502054013 18 331 0.0 1.6 0.00 0.00 0.00 88 1029.1
20260502053511 18 331 0.0 3.2 0.00 0.00 0.00 89 1029.2
20260502053011 18 331 0.0 3.2 0.00 0.00 0.00 88 1029.2
20260502052511 18 331 0.0 1.6 0.00 0.00 0.00 88 1029.2
20260502052011 18 332 0.0 1.6 0.00 0.00 0.00 88 1029.2
20260502051510 19 332 0.0 1.6 0.00 0.00 0.00 88 1029.2
20260502051010 19 332 0.0 1.6 0.00 0.00 0.00 88 1029.2
20260502050510 19 336 0.0 1.6 0.00 0.00 0.00 88 1029.3
20260502050011 19 336 0.0 1.6 0.00 0.00 0.00 88 1029.3
20260502045511 19 336 0.0 1.6 0.00 0.00 0.00 88 1029.4
20260502045009 19 336 0.0 1.6 0.00 0.00 0.00 87 1029.3
20260502044510 20 336 0.0 3.2 0.00 0.00 0.00 88 1029.5
20260502044010 20 336 0.0 3.2 0.00 0.00 0.00 88 1029.5
20260502043509 20 336 0.0 3.2 0.00 0.00 0.00 87 1029.5
20260502043009 20 338 0.0 3.2 0.00 0.00 0.00 88 1029.6
20260502042509 20 338 0.0 3.2 0.00 0.00 0.00 88 1029.6
20260502042009 20 335 0.0 0.0 0.00 0.00 0.00 87 1029.6
20260502041508 20 335 0.0 0.0 0.00 0.00 0.00 87 1029.6
20260502041007 20 335 0.0 0.0 0.00 0.00 0.00 88 1029.7
20260502040507 20 335 0.0 0.0 0.00 0.00 0.00 87 1029.7
20260502040009 20 335 0.0 1.6 0.00 0.00 0.00 87 1029.7
20260502035506 20 1 0.0 3.2 0.00 0.00 0.00 88 1029.6
20260502035006 20 1 0.0 3.2 0.00 0.00 0.00 88 1029.6
20260502034506 21 1 0.0 3.2 0.00 0.00 0.00 88 1029.6
20260502034007 21 352 0.0 3.2 0.00 0.00 0.00 87 1029.6
20260502033506 21 352 0.0 1.6 0.00 0.00 0.00 88 1029.5
20260502033003 21 352 0.0 1.6 0.00 0.00 0.00 88 1029.4
20260502032502 21 345 0.0 1.6 0.00 0.00 0.00 88 1029.1
20260502032002 21 343 0.0 1.6 0.00 0.00 0.00 88 1029.1
20260502031502 21 338 0.0 1.6 0.00 0.00 0.00 88 1029.0
20260502031102 21 338 0.0 1.6 0.00 0.00 0.00 88 1029.0
20260502030559 21 338 0.0 1.6 0.00 0.00 0.00 88 1028.8
20260502030101 21 338 0.0 1.6 0.00 0.00 0.00 89 1028.7
20260502025559 21 338 0.0 3.2 0.00 0.13 0.00 88 1028.6
20260502025102 21 338 0.0 3.2 0.00 0.13 0.00 89 1028.5
20260502024559 21 338 0.0 3.2 0.00 0.13 0.00 88 1028.4
20260502024059 21 6 0.0 3.2 0.00 0.13 0.00 90 1028.3
20260502023601 21 3 0.0 3.2 0.00 0.13 0.00 90 1028.2
20260502023059 21 1 0.0 3.2 0.00 0.13 0.00 90 1028.1
20260502022558 21 14 0.0 3.2 0.00 0.13 0.00 90 1027.9
20260502022057 21 1 0.0 1.6 0.00 0.13 0.00 90 1027.9
20260502021557 21 13 0.0 1.6 0.00 0.13 0.00 90 1027.8
20260502021057 21 13 0.0 0.0 0.00 0.13 0.00 90 1027.6
20260502020558 21 13 0.0 0.0 0.00 0.13 0.00 89 1027.6
20260502020058 21 13 0.0 0.0 0.00 0.13 0.00 89 1027.5
20260502015556 21 13 0.0 1.6 0.00 0.23 0.00 89 1027.4
20260502015058 22 13 0.0 1.6 0.00 0.23 0.00 89 1027.3
20260502014557 22 13 0.0 1.6 0.00 0.23 0.00 89 1027.2
20260502014057 22 13 0.0 0.0 0.00 0.23 0.00 89 1027.1
20260502013557 22 13 0.0 0.0 0.00 0.23 0.00 88 1027.0
20260502013057 22 13 0.0 1.6 0.00 0.23 0.00 88 1026.9
20260502012557 22 13 0.0 1.6 0.00 0.23 0.00 88 1026.7
20260502012057 22 13 0.0 3.2 0.00 0.23 0.00 88 1026.6
20260502011601 22 6 0.0 3.2 0.00 0.23 0.00 88 1026.4
20260502011056 22 18 0.0 3.2 0.00 0.23 0.00 88 1026.3
20260502010555 22 18 1.6 3.2 0.00 0.23 0.00 87 1026.3
20260502010056 22 18 0.0 1.6 0.00 0.23 0.00 87 1026.2
20260502005556 22 18 0.0 3.2 0.00 0.25 0.00 87 1026.2
20260502005056 22 18 0.0 3.2 0.00 0.25 0.00 86 1026.0
20260502004608 22 45 0.0 1.6 0.00 0.25 0.00 86 1025.9
20260502004057 23 45 0.0 1.6 0.00 0.25 0.00 86 1025.8
20260502003555 23 45 0.0 3.2 0.00 0.25 0.00 85 1025.8
20260502003055 23 45 0.0 3.2 0.00 0.25 0.00 84 1025.7
20260502002554 23 18 1.6 6.4 0.00 0.25 0.00 84 1025.7
20260502002054 23 1 1.6 6.4 0.00 0.25 0.00 83 1025.4
20260502001555 23 1 0.0 6.4 0.00 0.25 0.00 84 1025.3
20260502001054 23 30 1.6 8.0 0.00 0.25 0.00 83 1025.3
20260502000555 23 1 4.8 8.0 0.00 0.25 0.00 82 1025.3
20260502000101 23 2 1.6 8.0 0.00 0.25 0.00 83 1025.3
20260501235554 23 86 0.0 4.8 0.00 0.25 0.00 84 1025.2
20260501235054 24 354 0.0 3.2 0.00 0.25 0.00 84 1025.0
20260501234556 24 20 0.0 6.4 0.00 0.25 0.00 83 1025.0
20260501234055 24 49 0.0 6.4 0.00 0.25 0.00 83 1024.8
20260501233557 24 28 1.6 4.8 0.00 0.25 0.00 82 1024.7
20260501233055 24 79 0.0 4.8 0.00 0.25 0.00 83 1024.6
20260501232553 24 10 1.6 4.8 0.00 0.25 0.00 82 1024.5
20260501232054 25 8 0.0 4.8 0.00 0.25 0.00 82 1024.5
20260501231554 25 105 0.0 8.0 0.00 0.25 0.00 81 1024.3
20260501231052 25 72 3.2 9.7 0.00 0.25 0.00 81 1024.2
20260501230555 25 287 3.2 11.3 0.00 0.25 0.00 81 1024.2
20260501230052 25 205 1.6 11.3 0.00 0.25 0.00 80 1024.1
20260501225552 25 110 1.6 11.3 0.00 0.25 0.00 80 1024.0
20260501225052 25 261 0.0 8.0 0.00 0.25 0.00 80 1023.9
20260501224552 25 1 1.6 6.4 0.00 0.25 0.00 79 1024.0
20260501224052 25 193 3.2 6.4 0.00 0.25 0.00 79 1023.9
20260501223552 26 1 1.6 11.3 0.00 0.25 0.00 79 1023.8
20260501223102 26 355 4.8 11.3 0.00 0.25 0.00 79 1023.9
20260501222551 26 287 0.0 12.9 0.00 0.25 0.00 78 1023.9
20260501222051 26 41 3.2 11.3 0.00 0.25 0.00 78 1024.1
20260501221551 26 351 4.8 14.5 0.00 0.25 0.00 78 1024.0
20260501221054 26 188 4.8 14.5 0.00 0.25 0.00 77 1024.0
20260501220550 26 182 3.2 8.0 0.00 0.25 0.00 77 1024.0
20260501220053 26 333 3.2 11.3 0.00 0.25 0.00 77 1024.0
20260501215551 26 338 3.2 11.3 0.00 0.25 0.00 77 1024.0
20260501215050 26 283 0.0 11.3 0.00 0.25 0.00 77 1024.0
20260501214551 26 338 4.8 11.3 0.00 0.25 0.00 75 1023.9
20260501214049 26 315 3.2 12.9 0.00 0.25 0.00 75 1024.0
20260501213548 27 148 1.6 9.7 0.00 0.25 0.00 76 1024.0
20260501213107 27 301 3.2 8.0 0.00 0.25 0.00 74 1024.1
20260501212548 27 342 1.6 8.0 0.00 0.25 0.00 72 1024.2
20260501212049 27 184 1.6 8.0 0.00 0.25 0.00 71 1024.3
20260501211548 27 270 1.6 8.0 0.00 0.25 0.00 71 1024.2
20260501211047 27 201 1.6 8.0 0.00 0.25 0.00 72 1024.2
20260501210547 26 349 0.0 8.0 0.00 0.25 0.00 74 1024.2
20260501210047 27 207 0.0 9.7 0.00 0.25 0.00 72 1024.3
20260501205546 27 7 3.2 9.7 0.00 0.25 0.00 70 1024.3
20260501205048 27 122 3.2 6.4 0.00 0.25 0.00 68 1024.3
20260501204549 27 103 1.6 9.7 0.00 0.25 0.00 68 1024.3
20260501204049 27 178 1.6 9.7 0.00 0.25 0.00 68 1024.4
20260501203544 27 215 1.6 8.0 0.00 0.25 0.00 70 1024.5
20260501203043 27 264 3.2 8.0 0.00 0.25 0.00 70 1024.6
20260501202542 26 329 0.0 6.4 0.00 0.25 0.00 72 1024.5
20260501202043 26 139 0.0 11.3 0.00 0.25 0.00 75 1024.7
20260501201540 26 334 3.2 11.3 0.00 0.25 0.00 71 1024.9
20260501201039 26 12 0.0 6.4 0.00 0.25 0.00 73 1025.2
20260501200542 26 67 1.6 9.7 0.00 0.25 0.00 75 1025.2
20260501200038 26 75 0.0 4.8 0.00 0.25 0.00 73 1025.1
20260501195538 26 354 0.0 6.4 0.00 0.25 0.00 73 1025.2
20260501195037 26 178 3.2 8.0 0.00 0.25 0.00 74 1025.4
20260501194541 26 281 1.6 8.0 0.00 0.25 0.00 74 1025.4
20260501194036 26 103 0.0 3.2 0.00 0.25 0.00 79 1025.4
20260501193536 26 227 0.0 4.8 0.00 0.25 0.00 75 1025.4
20260501193035 26 352 1.6 8.0 0.00 0.25 0.00 74 1025.5
20260501192534 26 18 3.2 8.0 0.00 0.25 0.00 73 1025.6
20260501192034 26 40 1.6 4.8 0.00 0.25 0.00 72 1025.7
20260501191534 26 173 0.0 4.8 0.00 0.25 0.00 78 1025.8
20260501191032 26 1 1.6 4.8 0.00 0.25 0.00 73 1025.9
20260501190531 26 75 0.0 8.0 0.00 0.25 0.00 72 1026.1
20260501190030 26 71 3.2 8.0 0.00 0.25 0.00 67 1026.1
20260501185530 26 51 1.6 6.4 0.00 0.25 0.00 67 1026.2
20260501185029 26 193 1.6 6.4 0.00 0.25 0.00 70 1026.4
20260501184528 26 51 1.6 6.4 0.00 0.25 0.00 72 1026.5
20260501184028 26 209 0.0 4.8 0.00 0.25 0.00 73 1026.6
20260501183527 26 49 0.0 6.4 0.00 0.25 0.00 74 1026.6
20260501183027 26 292 1.6 6.4 0.00 0.25 0.00 74 1026.7
20260501182526 26 1 1.6 6.4 0.00 0.25 0.00 73 1026.7
20260501182025 26 48 3.2 6.4 0.00 0.25 0.00 75 1026.7
20260501181523 25 6 1.6 4.8 0.00 0.25 0.00 79 1026.8
20260501181023 24 24 0.0 3.2 0.00 0.25 0.00 81 1026.9